Dewpoint
-1 -2 -3 -3 -4 -7 -7 -4 4 7 6 6 6 3 3 6 7 8 7 8 7 6 5 5 4 3 4 4 3 3 5 6 6 4 3 1 0 -0 -1 -1 -4 -5 -5 -6 -8
-2 -2 -2 -3 -4 -6 -7 -5 -3 2 5 6 -0 0 8 8 8 8 8 6 5 5 6 5 3 3 4 3 3 3 5 5 2 1 2 0 -0 -1 -2 -2 -4 -6 -7 -8 -7
-2 -2 -2 -2 -4 -6 -7 -8 -5 -2 -1 -1 -4 3 7 7 7 6 6 6 5 5 5 4 3 3 2 2 2 2 4 2 2 1 0 -0 -1 -1 -1 -2 -5 -4 -6 -6 -11
-2 -3 -3 -3 -5 -6 -7 -5 -4 -2 -1 -4 -1 6 7 8 7 6 4 3 4 4 4 3 2 3 2 2 1 2 2 2 1 0 -0 -0 -1 -1 -1 -4 -6 -6 -4 -11 -8
-3 -4 -4 -3 -4 -6 -6 -5 -5 -2 -1 -1 6 8 7 6 6 6 4 3 3 3 2 2 2 1 2 1 1 1 1 -0 -0 -1 -2 -1 -1 -2 -2 -4 -7 -6 -12 -6 -4
-3 -4 -4 -4 -4 -6 -6 -5 -3 -1 -0 6 7 6 4 4 4 4 3 2 2 2 2 1 0 -0 -0 0 0 -0 -1 -1 -2 -3 -3 -2 -2 -2 -7 -9 -9 -11 -8 -3 -3
-2 -3 -4 -5 -5 -6 -6 -4 -2 -0 4 5 4 5 2 2 1 1 -1 -2 -0 1 -0 -1 -1 -0 -1 -1 -0 -1 -1 -2 -2 -5 -8 -6 -8 -4 -10 -8 -10 -13 -8 -2 -3
-3 -3 -4 -5 -5 -6 -5 -3 0 1 4 4 4 3 1 1 0 0 -1 -2 -3 -3 -2 -3 -2 -1 -1 -1 -2 -1 -1 -3 -6 -9 -10 -10 -5 -10 -10 -11 -13 -15 -10 -3 -4
-5 -3 -4 -5 -5 -5 -6 -2 -0 3 4 3 2 -1 1 0 -1 -5 -1 -2 -3 -3 -2 -1 -2 -1 -1 -2 -5 -3 -2 -5 -7 -9 -9 -9 -6 -9 -11 -11 -13 -14 -14 -3 -4
-6 -5 -5 -6 -5 -5 -6 -1 -2 -1 3 2 1 -1 0 -2 -6 -5 -5 -2 -3 -3 -3 -2 -2 -1 -1 -1 -5 -6 -5 -6 -6 -8 -8 -7 -6 -9 -11 -12 -13 -14 -11 -4 -6
-7 -6 -5 -6 -6 -5 -6 -1 -1 -2 -4 -3 -4 -3 -4 -6 -5 -6 -6 -2 -3 -2 -3 -2 -2 -4 -5 -1 -4 -6 -6 -5 -6 -8 -9 -8 -8 -10 -12 -14 -14 -12 -5 -5 -8
-8 -6 -5 -7 -7 -4 -6 -6 -5 -3 -4 -3 -4 -6 -7 -6 -4 -5 -6 -4 -3 -5 -6 -6 -2 -5 -6 -4 -4 -8 -7 -7 -8 -10 -10 -9 -10 -12 -13 -14 -14 -13 -5 -7 -9
-8 -7 -5 -7 -7 -5 -5 -4 -4 -1 -2 -5 -5 -5 -5 -6 -4 -5 -7 -7 -7 -6 -7 -6 -8 -9 -8 -8 -9 -9 -8 -7 -8 -9 -10 -10 -9 -10 -12 -13 -8 -7 -7 -9 -11
-7 -6 -5 -7 -4 -5 -4 -4 -3 1 -2 -4 -6 -6 -6 -6 -4 -6 -6 -7 -9 -7 -7 -7 -9 -9 -9 -9 -9 -7 -9 -8 -8 -8 -6 -10 -5 -9 -11 -12 -7 -8 -10 -11 -14
-6 -1 -4 -7 -4 -3 -4 -4 -1 2 -2 -5 -6 -5 -6 -6 -6 -6 -6 -8 -8 -8 -9 -9 -8 -8 -7 -8 -9 -7 -9 -9 -8 -7 -7 -7 -6 -8 -11 -13 -12 -12 -11 -14 -15
-1 1 -2 -3 -4 -4 -3 -1 1 -0 -4 -4 -5 -5 -5 -5 -5 -6 -6 -7 -7 -7 -7 -7 -8 -9 -8 -9 -10 -10 -10 -10 -8 -7 -6 -7 -6 -7 -10 -13 -13 -14 -13 -15 -14
4 3 -0 -3 -5 -4 -1 1 0 -1 -5 -2 -3 -4 -4 -4 -5 -5 -5 -5 -7 -6 -5 -7 -7 -10 -11 -9 -11 -10 -9 -6 -6 -6 -6 -8 -6 -8 -13 -14 -15 -16 -15 -15 -12
5 4 2 -1 -3 -3 0 -2 -3 -3 -2 -3 -3 -4 -2 -5 -6 -6 -6 -6 -7 -7 -5 -4 -4 -10 -11 -10 -9 -8 -8 -6 -7 -6 -7 -8 -5 -9 -12 -15 -15 -14 -13 -14 -11
5 4 3 1 -2 -3 0 -1 -0 -2 -3 -2 -3 -3 -3 -5 -6 -4 -5 -5 -6 -7 -5 -5 -5 -8 -9 -10 -10 -8 -6 -8 -7 -6 -4 -5 -7 -11 -11 -14 -15 -12 -12 -11 -11
4 4 3 2 -2 0 -1 1 -2 -3 -3 -3 0 -4 -3 -4 -3 -3 -3 -5 -7 -7 -7 -5 -5 -8 -8 -9 -9 -9 -9 -6 -7 -7 -5 -6 -6 -8 -12 -13 -12 -12 -10 -11 -10
4 3 2 2 -0 1 -1 -1 -2 -3 -3 -3 -2 -2 -3 -3 -3 -2 -4 -5 -7 -5 -5 -5 -6 -6 -7 -7 -6 -6 -6 -4 -7 -6 -4 -2 -5 -11 -12 -11 -11 -10 -10 -10 -9
3 1 2 -0 1 0 -0 -0 -4 -3 -3 -3 -3 -3 -2 -3 -2 -2 -2 -3 -7 -6 -5 -6 -6 -4 -4 -7 -7 -8 -7 -7 -5 -6 -6 -3 -4 -12 -12 -11 -11 -11 -10 -10 -8
3 2 2 1 0 1 1 -2 -3 -3 -3 -2 -2 -3 -3 -3 -3 -2 -2 -4 -7 -6 -4 -4 -5 -4 -5 -7 -8 -5 -6 -7 -9 -8 -4 -3 -5 -12 -11 -11 -10 -11 -10 -8 -10
2 2 2 1 1 -1 -0 -1 -0 -3 -3 -2 -2 -3 -3 -2 -3 -4 -2 -4 -6 -6 -4 -5 -5 -6 -3 -7 -9 -7 -7 -6 -6 -4 -4 -4 -5 -8 -9 -9 -9 -9 -9 -10 -10
2 2 2 2 -0 -1 -3 -2 1 0 -3 -3 -3 -2 -2 -3 -2 -1 -3 -3 -4 -4 -3 -4 -2 -4 -5 -6 -7 -6 -7 -7 -5 -5 -3 -5 -6 -7 -7 -7 -9 -9 -10 -9 -9
3 2 2 0 -0 -2 -1 -0 1 1 -2 -1 -1 -2 -3 -3 -2 -2 -4 -5 -4 -6 -5 -6 -1 -1 -1 -2 -2 -1 -2 -2 -3 -4 -4 -4 -3 -6 -7 -9 -9 -9 -9 -9 -10
3 3 2 1 -2 -2 -0 0 1 1 1 -1 -2 -1 -2 -3 -4 -5 -5 -5 -5 -5 -6 -4 -3 -2 -3 -5 -5 -3 -5 -5 -4 -4 -4 -2 -5 -8 -8 -9 -9 -8 -8 -7 -8
Wind_Speed
18 20 21 23 21 18 17 13 8 6 7 6 3 4 6 11 13 10 6 1 3 2 3 2 2 3 6 4 3 2 3 1 2 1 2 7 6 4 9 4 7 10 13 19 25
18 19 19 20 20 18 17 15 10 6 4 4 2 5 15 16 16 13 8 4 5 2 4 2 3 3 4 3 2 4 3 4 2 2 2 6 5 10 6 11 4 17 17 20 26
17 19 21 22 20 18 17 14 9 7 5 3 1 12 19 15 7 6 8 5 5 7 4 1 2 3 3 3 4 2 4 1 2 1 7 4 5 4 4 4 9 16 21 25 27
19 19 20 19 18 16 14 12 8 7 5 4 9 15 14 4 2 5 5 3 2 1 1 1 3 3 3 2 3 2 1 1 4 5 5 3 8 3 8 11 14 16 20 19 12
16 17 18 18 17 16 11 11 10 7 4 8 14 15 9 7 5 4 1 2 1 1 4 5 7 3 3 2 2 2 2 5 9 16 12 7 9 7 12 17 12 12 15 4 4
16 17 18 18 17 15 10 9 7 6 9 14 13 8 4 4 7 4 3 3 2 3 4 4 4 4 4 2 1 2 5 11 8 9 8 3 4 4 7 5 9 12 5 4 4
16 17 17 18 15 13 9 7 5 7 12 10 6 6 8 6 7 5 4 7 2 1 2 3 1 3 3 2 2 2 5 5 2 2 3 3 6 7 9 10 11 12 7 6 3
16 16 16 17 14 12 7 5 6 7 8 5 5 4 6 8 4 1 1 4 8 5 4 5 5 6 3 1 4 3 3 3 2 5 2 6 8 6 12 12 17 13 11 11 3
16 16 16 16 14 10 6 2 6 6 6 4 2 3 5 5 1 0 1 2 4 6 6 4 4 3 3 4 4 5 1 2 7 1 2 4 12 7 13 22 19 19 10 11 5
16 16 16 16 13 10 5 3 5 4 5 4 4 3 6 3 2 3 1 3 1 2 2 2 3 3 3 3 2 2 2 3 5 5 3 6 18 15 23 20 22 17 10 12 6
15 16 16 15 12 8 4 4 3 2 3 3 3 5 5 3 4 3 3 2 2 2 3 3 4 1 4 6 4 3 3 6 6 6 5 6 12 17 20 14 10 8 13 11 4
14 15 16 16 12 7 4 3 3 4 5 5 5 4 3 2 2 4 1 1 2 1 1 4 2 4 2 3 4 3 3 6 6 3 4 7 19 12 6 5 9 7 12 6 2
15 14 14 15 10 6 5 4 6 9 3 3 3 2 1 1 1 3 2 0 2 1 1 4 3 2 3 3 2 3 4 3 6 5 3 8 8 6 4 6 6 6 6 6 1
13 13 12 12 6 7 3 4 6 6 4 2 2 2 3 1 0 3 2 1 1 1 1 4 3 1 3 3 4 3 3 3 5 6 3 5 5 6 5 8 3 5 5 4 1
12 11 10 8 7 3 4 3 7 2 3 4 3 4 4 2 3 4 3 1 2 2 4 3 0 0 1 4 4 6 1 4 3 4 0 2 2 7 3 4 4 2 6 4 5
10 9 8 7 4 2 3 5 5 5 4 2 3 2 1 3 3 5 2 1 0 0 0 5 2 2 4 1 0 3 3 4 3 3 2 4 4 5 2 3 2 1 2 6 9
11 9 8 6 2 0 4 5 5 4 2 4 3 3 2 3 2 4 3 1 2 3 4 5 1 1 2 1 2 6 6 4 6 4 4 2 3 9 4 4 4 3 5 9 9
13 10 9 6 4 2 6 4 4 3 4 1 3 1 3 1 1 0 1 2 2 3 2 2 4 1 0 1 2 3 4 4 4 3 4 3 6 5 7 5 8 3 5 7 8
13 11 12 8 6 5 5 3 7 6 5 6 3 3 1 1 2 2 2 3 3 4 5 3 5 3 4 2 4 2 1 1 1 1 2 4 6 8 8 4 2 5 6 14 20
14 10 15 10 8 8 3 5 5 4 6 3 6 4 5 3 0 2 1 2 3 2 2 4 4 2 4 2 4 2 7 3 3 3 5 5 5 9 3 7 6 8 20 33 34
14 6 8 12 9 5 4 6 5 4 4 5 6 4 3 4 4 3 3 2 2 2 6 3 4 4 2 3 5 2 2 4 4 4 4 5 5 6 6 2 5 9 25 30 36
12 1 12 14 2 2 3 6 7 6 4 2 3 3 6 6 4 3 5 4 6 8 4 1 4 3 8 2 2 1 5 5 4 5 3 1 8 4 4 4 7 23 27 31 35
9 6 13 15 3 4 3 3 6 5 6 5 5 4 3 6 1 5 4 2 10 7 6 6 0 3 6 5 4 3 4 4 3 3 10 4 7 5 3 17 27 24 28 32 30
9 4 6 12 6 5 5 5 5 4 5 5 5 5 4 4 3 4 4 2 10 7 8 11 4 7 6 6 4 1 3 6 6 4 11 18 27 23 21 18 22 25 29 28 28
14 7 9 5 6 4 3 5 7 7 3 8 1 6 7 4 3 5 5 2 4 6 7 4 4 6 10 10 6 7 10 9 13 20 14 25 18 24 22 22 24 24 22 25 26
15 6 8 5 4 7 7 7 10 5 8 5 5 9 7 7 8 8 6 4 5 2 4 1 4 3 4 11 15 17 20 18 21 22 20 26 29 21 26 20 11 15 16 16 16
30 13 5 7 5 5 5 6 10 9 9 10 12 6 9 15 13 4 10 6 6 7 5 3 2 2 4 3 7 13 18 18 11 6 10 14 18 5 5 6 10 12 14 16 18
Wind_Direction
7 8 7 5 5 2 357 358 350 344 336 341 304 342 100 105 105 94 71 65 242 249 177 167 157 140 166 109 89 110 63 235 286 122 27 358 5 340 329 296 331 348 339 335 342
6 6 4 4 4 3 358 351 351 348 338 317 359 106 124 115 105 90 61 68 56 154 189 167 51 87 84 57 56 80 116 218 28 67 13 331 3 321 347 336 334 333 345 345 338
6 5 3 2 3 3 356 353 354 351 339 309 97 141 138 128 84 78 82 81 80 94 101 79 59 77 70 49 23 66 174 54 168 16 351 309 318 323 317 324 314 317 325 332 334
9 5 1 358 360 1 5 4 13 13 19 69 126 143 148 126 106 117 66 86 66 45 324 69 86 76 77 60 22 52 78 350 293 318 329 274 296 277 218 255 303 307 313 321 335
5 2 1 360 0 2 9 6 358 6 46 118 128 138 145 111 110 145 65 32 18 126 91 91 83 88 92 45 39 83 331 322 305 302 292 264 247 237 261 277 292 301 322 307 6
2 1 1 2 2 2 7 11 9 40 109 127 139 150 153 84 125 115 56 19 40 68 88 80 94 86 100 90 105 334 300 291 298 298 293 273 276 172 261 275 296 330 296 260 348
358 359 0 360 1 2 5 25 51 97 123 127 131 164 113 108 109 119 83 55 40 310 93 63 73 167 121 81 4 342 346 330 217 320 306 34 286 225 255 283 304 328 279 224 317
350 354 358 359 360 359 4 29 105 119 130 129 143 157 95 117 110 101 83 70 56 75 93 60 108 118 82 83 30 42 45 18 280 333 149 85 272 260 282 297 307 309 278 251 286
341 347 354 356 356 359 354 81 129 139 136 129 135 135 126 136 130 341 205 67 83 79 80 65 112 92 95 81 30 21 211 249 310 266 250 63 285 246 287 289 289 299 294 241 238
334 339 345 353 353 355 352 174 151 147 162 133 97 100 139 141 110 105 179 212 110 61 93 59 64 74 45 75 203 247 309 253 235 282 336 278 265 281 287 285 277 287 237 218 217
327 331 335 345 349 2 10 162 179 138 153 116 91 90 126 131 140 133 120 136 96 65 58 23 52 223 229 198 169 187 214 248 258 264 281 253 275 286 294 303 286 262 204 201 209
318 323 329 338 343 5 16 211 178 161 107 117 112 106 121 160 173 189 106 144 76 53 86 23 249 239 237 160 187 230 268 276 287 241 308 307 293 281 283 284 294 271 196 186 194
308 316 323 331 339 349 30 73 141 145 104 173 167 194 191 182 223 193 174 89 145 119 163 171 262 7 185 216 231 263 223 251 254 324 277 338 299 347 309 357 345 86 134 146 95
299 308 318 330 326 343 21 43 153 159 80 222 224 187 177 165 38 189 195 290 64 210 337 222 280 143 148 244 164 284 188 247 281 4 293 68 281 310 329 335 70 78 127 147 330
286 307 315 325 312 329 354 80 144 127 24 167 183 175 181 195 157 198 218 195 203 206 81 259 237 106 241 230 168 236 341 265 250 202 45 339 64 271 356 18 353 228 172 207 305
274 296 312 313 303 326 39 116 126 46 264 195 137 199 184 183 192 152 193 207 189 231 155 242 288 223 218 76 22 337 341 53 62 97 22 234 144 273 264 227 253 181 216 308 310
268 283 298 295 220 147 124 137 37 130 41 180 215 172 246 219 206 175 174 211 191 43 350 335 208 249 167 127 43 46 35 340 352 5 226 246 285 255 240 231 176 105 319 306 305
258 274 280 265 213 169 143 60 107 189 200 115 117 114 218 144 285 242 128 292 136 104 89 86 334 103 220 183 150 55 124 146 256 279 282 316 244 252 210 197 136 97 339 307 295
241 262 267 240 210 180 150 77 207 194 159 151 106 136 238 209 148 345 213 214 211 162 159 110 278 331 53 35 113 162 110 187 113 337 19 246 288 288 221 229 234 258 299 330 326
233 255 255 223 198 172 96 223 192 186 133 135 168 160 191 195 187 42 226 206 166 83 129 178 340 354 301 19 42 150 154 52 10 341 289 271 264 236 198 218 284 329 339 336 331
218 238 215 183 176 202 179 211 183 178 145 148 182 148 176 175 166 193 231 277 150 81 77 118 106 287 323 189 180 89 160 59 120 153 206 301 246 217 215 176 319 309 326 321 323
198 201 185 173 193 221 187 190 153 155 153 128 123 147 173 163 172 222 216 215 174 147 142 105 137 241 234 257 8 140 199 140 134 257 234 241 272 271 156 110 306 314 315 320 319
195 181 181 182 186 222 261 199 172 139 173 160 165 170 170 178 127 196 196 246 175 152 162 182 31 343 336 3 3 182 193 148 119 96 218 226 260 209 258 320 321 316 313 312 317
178 171 178 201 242 163 175 212 180 179 144 146 140 121 121 198 212 188 216 216 197 193 169 158 169 181 207 201 145 196 241 197 163 207 260 228 267 276 297 299 309 309 306 315 314
201 219 188 182 236 202 141 159 153 163 175 164 99 193 162 170 196 216 196 222 195 210 172 142 229 200 247 259 221 227 233 222 215 246 246 270 260 279 292 297 300 300 312 321 325
182 181 183 167 154 141 192 214 182 162 144 207 205 184 172 173 188 192 150 180 202 56 129 330 256 190 248 244 246 260 255 247 241 249 255 265 277 274 281 288 288 310 330 337 349
206 200 194 158 136 133 212 189 203 141 212 173 183 133 190 226 209 161 183 182 165 154 175 160 154 23 263 345 317 277 252 231 229 220 224 244 256 287 262 285 301 300 306 311 319
Height
1507 1503 1499 1495 1491 1488 1485 1482 1480 1478 1476 1475 1475 1474 1475 1476 1477 1479 1479 1481 1480 1480 1479 1479 1480 1480 1481 1482 1483 1484 1493 1496 1489 1489 1491 1491 1490 1488 1487 1487 1486 1486 1486 1484 1480
1507 1503 1500 1496 1491 1488 1484 1481 1479 1477 1476 1475 1474 1475 1476 1477 1479 1480 1482 1480 1479 1479 1480 1480 1480 1480 1482 1483 1485 1485 1495 1492 1490 1490 1492 1491 1491 1488 1487 1485 1484 1483 1484 1482 1480
1507 1503 1498 1494 1490 1487 1484 1481 1478 1477 1475 1475 1475 1475 1477 1478 1480 1482 1482 1482 1481 1480 1480 1480 1481 1481 1483 1485 1487 1488 1493 1491 1491 1491 1492 1491 1490 1489 1488 1487 1485 1484 1482 1480 1477
1505 1502 1499 1495 1491 1488 1484 1481 1479 1477 1476 1475 1475 1477 1478 1479 1484 1482 1483 1482 1482 1481 1482 1481 1482 1483 1486 1488 1488 1490 1490 1491 1490 1490 1491 1491 1489 1489 1488 1486 1485 1484 1484 1481 1479
1507 1503 1499 1495 1491 1487 1484 1482 1480 1478 1476 1476 1477 1479 1480 1481 1483 1483 1483 1483 1482 1482 1482 1482 1482 1484 1487 1488 1489 1490 1490 1490 1489 1488 1487 1487 1486 1486 1483 1483 1484 1483 1481 1479 1477
1506 1502 1498 1494 1490 1487 1484 1482 1481 1479 1478 1478 1479 1480 1481 1482 1483 1483 1483 1483 1482 1482 1483 1483 1484 1485 1487 1489 1490 1490 1490 1489 1487 1485 1485 1485 1484 1484 1479 1480 1481 1481 1478 1477 1475
1504 1501 1497 1493 1490 1487 1485 1482 1481 1480 1481 1481 1481 1481 1481 1484 1483 1484 1484 1483 1482 1483 1484 1484 1485 1486 1488 1490 1490 1490 1491 1487 1486 1486 1485 1483 1483 1480 1475 1478 1478 1477 1475 1474 1474
1503 1500 1496 1492 1489 1487 1485 1483 1482 1482 1483 1483 1482 1482 1483 1484 1484 1485 1485 1485 1484 1483 1484 1484 1485 1486 1488 1490 1491 1492 1493 1495 1486 1486 1485 1485 1487 1474 1474 1475 1473 1473 1472 1471 1470
1501 1498 1495 1492 1488 1486 1484 1483 1483 1483 1483 1483 1483 1482 1484 1485 1485 1485 1485 1485 1485 1485 1485 1485 1486 1487 1489 1493 1500 1499 1506 1496 1493 1485 1486 1485 1482 1471 1471 1471 1468 1468 1467 1468 1469
1499 1496 1494 1491 1488 1486 1484 1483 1483 1483 1483 1484 1483 1485 1485 1485 1485 1485 1485 1486 1485 1485 1486 1486 1486 1490 1493 1497 1503 1496 1501 1497 1497 1487 1484 1486 1478 1468 1466 1466 1463 1463 1462 1464 1467
1497 1494 1491 1489 1486 1485 1483 1484 1486 1484 1482 1483 1484 1484 1484 1485 1485 1486 1486 1486 1485 1485 1488 1487 1492 1492 1489 1491 1490 1491 1494 1498 1492 1486 1485 1482 1476 1465 1461 1460 1458 1457 1459 1462 1466
1494 1492 1488 1486 1485 1484 1483 1481 1481 1483 1483 1482 1483 1484 1484 1484 1485 1485 1486 1487 1485 1488 1487 1492 1492 1485 1486 1488 1490 1490 1492 1495 1488 1483 1484 1478 1468 1460 1457 1457 1455 1454 1458 1461 1464
1492 1489 1487 1484 1482 1483 1481 1480 1480 1481 1482 1483 1482 1483 1484 1485 1484 1484 1486 1485 1485 1486 1487 1491 1485 1484 1486 1487 1489 1489 1491 1492 1491 1486 1483 1480 1470 1463 1456 1455 1453 1455 1459 1462 1463
1489 1486 1485 1482 1483 1480 1480 1479 1478 1480 1492 1485 1482 1482 1483 1483 1485 1485 1485 1487 1485 1486 1486 1488 1483 1482 1485 1486 1488 1491 1485 1486 1488 1492 1499 1485 1500 1468 1459 1459 1456 1459 1461 1461 1462
1485 1483 1482 1480 1479 1478 1479 1477 1478 1481 1502 1484 1482 1482 1481 1484 1483 1484 1485 1485 1485 1485 1488 1485 1483 1484 1486 1485 1484 1487 1484 1485 1485 1492 1491 1491 1504 1473 1462 1459 1460 1458 1459 1460 1459
1482 1481 1479 1478 1477 1477 1476 1477 1479 1491 1503 1483 1481 1482 1482 1482 1482 1483 1484 1485 1485 1485 1485 1485 1482 1483 1484 1483 1484 1484 1485 1490 1494 1498 1526 1496 1495 1476 1465 1460 1459 1459 1460 1459 1459
1479 1478 1477 1475 1474 1474 1475 1477 1490 1499 1479 1481 1480 1481 1482 1482 1482 1483 1484 1485 1487 1495 1491 1487 1483 1482 1482 1484 1486 1487 1496 1520 1512 1524 1516 1489 1490 1468 1458 1457 1457 1458 1458 1457 1456
1477 1476 1474 1473 1472 1471 1473 1480 1496 1478 1479 1476 1477 1480 1483 1482 1483 1483 1485 1487 1485 1487 1505 1504 1493 1483 1483 1484 1486 1492 1497 1524 1515 1532 1505 1491 1481 1463 1455 1454 1454 1456 1456 1455 1452
1472 1473 1472 1470 1470 1470 1472 1494 1477 1473 1471 1475 1478 1479 1481 1482 1487 1486 1486 1488 1484 1486 1495 1512 1493 1484 1484 1484 1487 1495 1504 1500 1509 1512 1527 1493 1478 1459 1455 1455 1455 1455 1454 1451 1448
1469 1469 1468 1468 1468 1469 1472 1470 1466 1464 1467 1471 1473 1475 1481 1481 1484 1490 1488 1483 1483 1484 1486 1495 1508 1489 1487 1485 1488 1489 1495 1510 1533 1537 1518 1487 1485 1457 1451 1455 1455 1451 1448 1446 1444
1467 1466 1463 1465 1467 1468 1473 1466 1462 1462 1464 1469 1472 1475 1478 1480 1488 1488 1489 1483 1482 1486 1486 1493 1503 1496 1490 1488 1491 1496 1497 1508 1516 1522 1525 1512 1471 1452 1449 1451 1453 1451 1448 1445 1440
1461 1463 1459 1462 1469 1464 1466 1456 1453 1459 1462 1465 1467 1470 1475 1479 1487 1489 1484 1483 1481 1483 1489 1492 1507 1516 1496 1488 1490 1490 1501 1506 1519 1526 1530 1514 1463 1443 1445 1448 1451 1448 1444 1441 1436
1453 1455 1458 1459 1465 1462 1457 1453 1451 1456 1459 1463 1466 1467 1471 1476 1487 1483 1480 1478 1479 1481 1488 1492 1509 1520 1494 1497 1492 1495 1494 1501 1513 1516 1498 1509 1459 1444 1442 1442 1444 1443 1440 1436 1431
1447 1451 1453 1454 1453 1451 1455 1454 1452 1451 1454 1457 1462 1466 1470 1474 1475 1482 1479 1478 1478 1479 1481 1485 1498 1500 1496 1496 1504 1501 1501 1491 1497 1500 1474 1468 1443 1444 1444 1444 1442 1441 1436 1431 1426
1437 1436 1435 1443 1446 1445 1446 1448 1448 1451 1452 1454 1461 1461 1466 1483 1477 1476 1477 1478 1478 1479 1481 1485 1495 1495 1487 1483 1490 1488 1490 1490 1488 1472 1479 1444 1459 1442 1444 1442 1440 1437 1432 1428 1422
1426 1429 1430 1430 1433 1441 1442 1445 1443 1442 1447 1454 1455 1453 1461 1468 1463 1472 1472 1476 1476 1479 1482 1486 1485 1485 1483 1477 1475 1473 1465 1466 1466 1465 1463 1455 1447 1445 1444 1440 1437 1434 1430 1426 1422
1416 1420 1422 1423 1430 1438 1434 1432 1435 1436 1440 1440 1444 1451 1458 1453 1457 1461 1462 1465 1468 1475 1483 1485 1487 1489 1485 1478 1476 1469 1446 1448 1448 1450 1451 1455 1440 1440 1439 1437 1434 1431 1428 1425 1421